KC1HBM Weather Reports


Display with metric or nautical units.
time (UTC)temp
F
wind
direction
speed
MPH
gust
MPH
rain 1hr
in
rain 24hr
in
rain mn
in
humidity
%
barometer
mb
20260904144158 79 300 1.0 2.0 0.00 0.00 0.00 77 1007.1
20260904143653 78 305 0.0 0.0 0.00 0.00 0.00 79 1006.9
20260904143150 77 302 1.0 1.0 0.00 0.00 0.00 81 1007.1
20260904142646 76 297 2.0 2.0 0.00 0.00 0.00 81 1007.2
20260904142142 75 301 1.0 2.0 0.00 0.00 0.00 83 1007.2
20260904141636 75 297 2.0 2.0 0.00 0.00 0.00 83 1007.4
20260904141132 76 304 2.0 2.0 0.00 0.00 0.00 81 1007.1
20260904140627 75 309 0.0 0.0 0.00 0.00 0.00 83 1007.5
20260904140121 76 309 0.0 1.0 0.00 0.00 0.00 82 1007.4
20260904135620 75 302 1.0 1.0 0.00 0.00 0.00 84 1007.1
20260904135111 75 307 0.0 0.0 0.00 0.00 0.00 83 1007.2
20260904134607 75 308 0.0 0.0 0.00 0.00 0.00 83 1007.4
20260904134106 74 311 0.0 0.0 0.00 0.00 0.00 84 1007.5
20260904133601 72 304 1.0 1.0 0.00 0.00 0.00 89 1007.5
20260904133057 72 311 0.0 1.0 0.00 0.00 0.00 90 1007.5
20260904132556 71 309 2.0 2.0 0.00 0.00 0.00 90 1007.4
20260904132051 71 306 0.0 1.0 0.00 0.00 0.00 92 1007.4
20260904131551 71 309 1.0 1.0 0.00 0.00 0.00 91 1007.5
20260904131047 70 311 0.0 0.0 0.00 0.00 0.00 93 1007.2
20260904130546 68 311 0.0 0.0 0.00 0.00 0.00 95 1007.2
20260904130041 68 311 0.0 0.0 0.00 0.00 0.00 96 1007.2
20260904125538 68 311 0.0 0.0 0.00 0.00 0.00 96 1007.4
20260904125032 68 313 0.0 0.0 0.00 0.00 0.00 97 1007.3
20260904124528 67 329 1.0 1.0 0.00 0.00 0.00 98 1007.6
20260904124023 67 310 0.0 0.0 0.00 0.00 0.00 99 1007.5
20260904123523 66 311 0.0 0.0 0.00 0.00 0.00 99 1007.6
20260904123018 66 309 0.0 0.0 0.00 0.00 0.00 99 1007.5
20260904122513 66 311 0.0 0.0 0.00 0.00 0.00 99 1007.6
20260904122008 66 313 0.0 0.0 0.00 0.00 0.00 99 1007.6
20260904121503 66 312 0.0 0.0 0.00 0.00 0.00 99 1007.3
20260904121000 65 312 0.0 0.0 0.00 0.00 0.00 99 1007.5
20260904120455 65 308 0.0 0.0 0.00 0.00 0.00 99 1007.5
20260904115950 65 310 0.0 0.0 0.00 0.00 0.00 99 1007.4
20260904115446 65 310 0.0 0.0 0.00 0.00 0.00 99 1007.3
20260904114945 65 312 0.0 1.0 0.00 0.00 0.00 99 1007.3
20260904114440 65 311 0.0 0.0 0.00 0.00 0.00 99 1007.3
20260904113935 65 313 0.0 0.0 0.00 0.00 0.00 99 1007.6
20260904113435 65 311 0.0 0.0 0.00 0.00 0.00 99 1007.4
20260904112934 65 311 0.0 0.0 0.00 0.00 0.00 99 1007.4
20260904112430 65 311 0.0 0.0 0.00 0.00 0.00 99 1007.4
20260904111925 65 311 0.0 0.0 0.00 0.00 0.00 99 1007.3
20260904111420 64 313 0.0 0.0 0.00 0.00 0.00 99 1007.4
20260904110911 65 311 0.0 0.0 0.00 0.00 0.00 99 1007.4
20260904110409 65 311 0.0 0.0 0.00 0.00 0.00 99 1007.2
20260904105905 65 312 0.0 0.0 0.00 0.00 0.00 99 1007.3
20260904105400 65 313 0.0 0.0 0.00 0.00 0.00 99 1007.3
20260904104855 64 311 0.0 0.0 0.00 0.00 0.00 99 1007.5
20260904104349 65 312 0.0 0.0 0.00 0.00 0.00 99 1007.5
20260904103846 65 311 0.0 0.0 0.00 0.00 0.00 99 1007.2
20260904103341 64 312 0.0 0.0 0.00 0.00 0.00 99 1007.3
20260904102837 65 311 0.0 0.0 0.00 0.00 0.00 99 1007.2
20260904102332 65 312 0.0 0.0 0.00 0.00 0.00 99 1007.4
20260904101828 65 311 0.0 0.0 0.00 0.00 0.00 99 1007.1
20260904101324 65 310 0.0 0.0 0.00 0.00 0.00 99 1006.9
20260904100820 65 311 0.0 0.0 0.00 0.00 0.00 99 1007.1
20260904100315 65 310 0.0 0.0 0.00 0.00 0.00 99 1007.1
20260904095810 65 307 0.0 0.0 0.00 0.00 0.00 99 1007.2
20260904095306 65 311 0.0 0.0 0.00 0.00 0.00 99 1007.1
20260904094800 65 311 0.0 0.0 0.00 0.00 0.00 99 1007.2
20260904094254 65 311 0.0 0.0 0.00 0.00 0.00 99 1007.0
20260904093750 65 311 0.0 0.0 0.00 0.00 0.00 99 1006.9
20260904093245 65 313 0.0 0.0 0.00 0.00 0.00 99 1007.0
20260904092741 65 312 0.0 0.0 0.00 0.00 0.00 99 1007.0
20260904092237 65 312 0.0 0.0 0.00 0.00 0.00 99 1007.0
20260904091733 64 311 0.0 0.0 0.00 0.00 0.00 99 1007.0
20260904091227 65 310 0.0 1.0 0.00 0.00 0.00 99 1006.9
20260904090723 65 311 0.0 0.0 0.00 0.00 0.00 99 1007.0
20260904090218 65 311 0.0 0.0 0.00 0.00 0.00 99 1007.0
20260904085713 65 311 0.0 0.0 0.00 0.00 0.00 99 1007.1
20260904085208 65 311 0.0 0.0 0.00 0.00 0.00 99 1007.0
20260904084703 65 312 0.0 0.0 0.00 0.00 0.00 99 1007.1
20260904084159 65 313 0.0 0.0 0.00 0.00 0.00 99 1007.0
20260904083655 65 310 0.0 0.0 0.00 0.00 0.00 99 1006.9
20260904083152 65 311 0.0 0.0 0.00 0.00 0.00 99 1006.9
20260904082646 65 311 0.0 0.0 0.00 0.00 0.00 99 1007.0
20260904082141 65 311 0.0 0.0 0.00 0.00 0.00 99 1007.0
20260904081637 64 311 0.0 0.0 0.00 0.00 0.00 99 1007.1
20260904081132 64 311 0.0 0.0 0.00 0.00 0.00 99 1007.1
20260904080627 65 311 0.0 0.0 0.00 0.00 0.00 99 1007.1
20260904080123 64 312 0.0 0.0 0.00 0.00 0.00 99 1007.1
20260904075619 64 312 0.0 0.0 0.00 0.00 0.00 99 1007.2
20260904075119 64 311 0.0 0.0 0.00 0.00 0.00 99 1007.2
20260904074613 64 311 0.0 0.0 0.00 0.00 0.00 99 1007.1
20260904074108 65 311 0.0 0.0 0.00 0.00 0.00 99 1007.3
20260904073602 64 311 0.0 0.0 0.00 0.00 0.00 99 1007.2
20260904073059 64 312 0.0 0.0 0.00 0.00 0.00 99 1007.4
20260904072554 64 312 0.0 0.0 0.00 0.00 0.00 99 1007.3
20260904072049 64 311 0.0 0.0 0.00 0.00 0.00 99 1007.5
20260904071545 64 311 0.0 0.0 0.00 0.00 0.00 99 1007.5
20260904071040 64 311 0.0 0.0 0.00 0.00 0.00 99 1007.4
20260904070538 64 313 0.0 0.0 0.00 0.00 0.00 99 1007.3
20260904070034 64 313 0.0 0.0 0.00 0.00 0.00 99 1007.7
20260904065528 64 312 0.0 0.0 0.00 0.00 0.00 99 1007.4
20260904065025 64 312 0.0 0.0 0.00 0.00 0.00 99 1007.8
20260904064521 64 312 0.0 0.0 0.00 0.00 0.00 99 1007.7
20260904064015 64 312 0.0 0.0 0.00 0.00 0.00 99 1007.6
20260904063511 64 313 0.0 0.0 0.00 0.00 0.00 99 1008.0
20260904063006 64 314 0.0 0.0 0.00 0.00 0.00 99 1008.0
20260904062502 64 310 0.0 0.0 0.00 0.00 0.00 99 1008.0
20260904061958 64 313 0.0 0.0 0.00 0.00 0.00 99 1008.1
20260904061454 64 313 0.0 0.0 0.00 0.00 0.00 99 1008.3
20260904060949 64 313 0.0 0.0 0.00 0.00 0.00 99 1008.1
20260904060445 64 310 0.0 0.0 0.00 0.00 0.00 99 1008.1
20260904055941 64 311 0.0 0.0 0.00 0.00 0.00 99 1008.2
20260904055437 64 312 0.0 0.0 0.00 0.00 0.00 99 1008.3
20260904054932 64 312 0.0 0.0 0.00 0.00 0.00 99 1008.3
20260904054427 64 312 0.0 0.0 0.00 0.00 0.00 99 1008.4
20260904053923 64 312 0.0 0.0 0.00 0.00 0.00 99 1008.5
20260904053422 64 312 0.0 0.0 0.00 0.00 0.00 99 1008.5
20260904052918 64 312 0.0 0.0 0.00 0.00 0.00 99 1008.4
20260904052415 64 311 0.0 0.0 0.00 0.00 0.00 99 1008.5
20260904051910 64 311 0.0 0.0 0.00 0.00 0.00 99 1008.7
20260904051406 64 311 0.0 0.0 0.00 0.00 0.00 99 1008.7
20260904050900 64 312 0.0 0.0 0.00 0.00 0.00 99 1008.6
20260904050357 64 310 0.0 0.0 0.00 0.00 0.00 99 1008.8
20260904045856 64 309 0.0 0.0 0.00 0.00 0.00 99 1008.7
20260904045352 64 308 0.0 0.0 0.00 0.00 0.00 99 1008.6
20260904044851 64 310 0.0 0.0 0.00 0.00 0.00 99 1008.7
20260904044348 64 310 0.0 0.0 0.00 0.00 0.00 99 1008.7
20260904043844 64 310 0.0 0.0 0.00 0.00 0.00 99 1008.6
20260904043341 64 309 0.0 0.0 0.00 0.00 0.00 99 1008.9
20260904042835 64 311 0.0 0.0 0.00 0.00 0.00 99 1008.7
20260904042332 64 314 0.0 0.0 0.00 0.00 0.00 99 1008.9
20260904041826 64 310 0.0 1.0 0.00 0.00 0.00 99 1008.9
20260904041322 64 310 0.0 0.0 0.00 0.00 0.00 99 1008.9
20260904040818 64 309 0.0 0.0 0.00 0.00 0.00 99 1008.8
20260904040313 64 310 0.0 0.0 0.00 0.00 0.00 99 1008.9
20260904035809 64 313 0.0 1.0 0.00 0.15 0.15 99 1009.1
20260904035306 64 309 0.0 0.0 0.00 0.15 0.15 99 1009.1
20260904034803 64 308 0.0 0.0 0.00 0.15 0.15 99 1009.1
20260904034300 64 310 0.0 0.0 0.00 0.15 0.15 99 1009.2
20260904033755 64 310 0.0 0.0 0.00 0.15 0.15 99 1009.2
20260904033252 64 310 0.0 0.0 0.00 0.15 0.15 99 1008.9
20260904032748 64 309 0.0 0.0 0.00 0.15 0.15 99 1008.9
20260904032246 65 311 0.0 0.0 0.00 0.15 0.15 99 1009.0
20260904031741 65 310 0.0 0.0 0.00 0.15 0.15 99 1009.1
20260904031236 65 314 0.0 0.0 0.00 0.15 0.15 99 1008.8
20260904030726 65 313 0.0 0.0 0.00 0.15 0.15 99 1009.1
20260904030221 65 302 2.0 2.0 0.00 0.15 0.15 99 1009.2
20260904025719 65 311 0.0 0.0 0.00 0.15 0.15 99 1009.3
20260904025212 65 311 0.0 0.0 0.00 0.15 0.15 99 1009.6
20260904024708 65 311 0.0 0.0 0.00 0.15 0.15 99 1009.7
20260904024203 65 311 0.0 0.0 0.00 0.15 0.15 99 1009.7
20260904023654 65 311 0.0 0.0 0.00 0.15 0.15 99 1009.8
20260904023150 65 311 0.0 0.0 0.00 0.15 0.15 99 1009.6
20260904022649 65 311 0.0 0.0 0.00 0.15 0.15 99 1009.6
20260904022146 65 311 0.0 0.0 0.00 0.15 0.15 99 1009.8
20260904021642 65 311 0.0 0.0 0.00 0.15 0.15 99 1009.8
20260904021136 65 313 0.0 0.0 0.00 0.15 0.15 99 1009.6
20260904020633 65 311 0.0 0.0 0.00 0.15 0.15 99 1009.9
20260904020127 65 311 0.0 0.0 0.00 0.15 0.15 99 1009.8
20260904015621 65 312 0.0 0.0 0.00 0.15 0.15 99 1009.6
20260904015120 65 312 0.0 0.0 0.00 0.15 0.15 99 1010.1
20260904014619 65 315 0.0 0.0 0.00 0.15 0.15 99 1009.9
20260904014114 65 310 0.0 0.0 0.00 0.15 0.15 99 1010.1
20260904013611 65 312 0.0 0.0 0.00 0.15 0.15 99 1009.8
20260904013108 65 310 0.0 0.0 0.00 0.15 0.15 99 1010.1
20260904012608 65 314 0.0 0.0 0.00 0.15 0.15 99 1009.9
20260904012102 65 314 0.0 0.0 0.00 0.15 0.15 99 1010.1
20260904011601 65 312 0.0 0.0 0.00 0.15 0.15 99 1010.1
20260904011057 65 311 0.0 0.0 0.00 0.15 0.15 99 1010.1
20260904010553 65 311 0.0 0.0 0.00 0.15 0.15 99 1010.2
20260904010050 64 312 0.0 0.0 0.00 0.15 0.15 99 1010.0
20260904005549 64 310 0.0 0.0 0.00 0.15 0.15 99 1009.8
20260904005044 65 311 0.0 0.0 0.00 0.15 0.15 99 1009.7
20260904004539 64 310 0.0 0.0 0.00 0.15 0.15 99 1009.7
20260904004034 64 312 0.0 0.0 0.00 0.15 0.15 99 1009.9
20260904003531 65 311 0.0 0.0 0.00 0.15 0.15 99 1009.8
20260904003026 65 312 0.0 0.0 0.00 0.15 0.15 99 1009.7
20260904002522 64 310 0.0 0.0 0.00 0.15 0.15 99 1009.4
20260904002021 64 310 0.0 0.0 0.00 0.15 0.15 99 1009.7
20260904001517 65 310 0.0 0.0 0.00 0.15 0.15 99 1009.9
20260904001016 65 310 0.0 0.0 0.00 0.15 0.15 99 1009.7
20260904000515 65 310 0.0 0.0 0.00 0.15 0.15 99 1009.8
20260904000011 64 310 0.0 0.0 0.00 0.15 0.15 99 1009.4
20260903235506 65 311 0.0 0.0 0.00 0.15 0.15 99 1009.5
20260903235002 65 311 0.0 0.0 0.00 0.15 0.15 99 1009.5
20260903234457 65 310 0.0 0.0 0.00 0.15 0.15 99 1009.6
20260903233953 65 310 1.0 1.0 0.00 0.15 0.15 99 1009.4
20260903233449 65 311 0.0 0.0 0.00 0.15 0.15 99 1009.6
20260903232944 65 311 0.0 0.0 0.00 0.15 0.15 99 1009.6
20260903232439 65 312 0.0 0.0 0.00 0.15 0.15 99 1009.7
20260903231938 65 311 0.0 0.0 0.00 0.15 0.15 99 1009.7
20260903231434 65 311 0.0 0.0 0.00 0.15 0.15 99 1009.9
20260903230928 65 310 0.0 0.0 0.00 0.15 0.15 99 1009.8
20260903230424 66 311 0.0 0.0 0.00 0.15 0.15 98 1009.8
20260903225920 66 310 0.0 0.0 0.00 0.15 0.15 98 1009.8
20260903225416 66 311 0.0 0.0 0.00 0.15 0.15 98 1009.8
20260903224912 66 311 0.0 0.0 0.00 0.15 0.15 97 1009.8
20260903224408 66 311 0.0 0.0 0.00 0.15 0.15 97 1009.9
20260903223904 66 311 0.0 0.0 0.00 0.15 0.15 97 1009.9
20260903223402 66 311 0.0 0.0 0.00 0.15 0.15 96 1010.1
20260903222857 66 311 0.0 0.0 0.00 0.15 0.15 96 1009.8
20260903222357 66 312 0.0 0.0 0.00 0.15 0.15 96 1010.0
20260903221851 66 310 0.0 0.0 0.00 0.15 0.15 96 1009.7
20260903221350 66 311 0.0 0.0 0.00 0.15 0.15 95 1010.0
20260903220849 66 309 0.0 0.0 0.00 0.15 0.15 95 1010.1
20260903220343 66 312 0.0 0.0 0.00 0.15 0.15 95 1009.9
20260903215841 66 310 0.0 0.0 0.00 0.15 0.15 95 1009.9
20260903215338 66 311 0.0 1.0 0.00 0.15 0.15 95 1010.0
20260903214836 66 312 0.0 0.0 0.00 0.15 0.15 95 1009.9
20260903214332 66 311 0.0 0.0 0.00 0.15 0.15 95 1009.8
20260903213826 67 311 0.0 0.0 0.00 0.15 0.15 95 1010.0
20260903213321 66 310 0.0 1.0 0.00 0.15 0.15 95 1009.8
20260903212818 67 307 1.0 1.0 0.00 0.15 0.15 94 1010.1
20260903212314 67 312 0.0 1.0 0.00 0.15 0.15 94 1009.9
20260903211813 66 314 0.0 0.0 0.00 0.15 0.15 95 1010.1
20260903211309 66 312 0.0 0.0 0.00 0.15 0.15 95 1010.2
20260903210805 66 313 0.0 0.0 0.00 0.15 0.15 95 1009.9
20260903210300 66 309 0.0 0.0 0.00 0.15 0.15 96 1010.0
20260903205754 66 308 0.0 0.0 0.00 0.15 0.15 96 1009.8
20260903205253 66 310 0.0 1.0 0.00 0.15 0.15 97 1009.9
20260903204749 66 308 1.0 1.0 0.00 0.15 0.15 97 1009.8
20260903204244 66 308 0.0 1.0 0.00 0.15 0.15 96 1010.1
20260903203740 66 310 0.0 0.0 0.00 0.15 0.15 97 1010.2
20260903203236 66 310 0.0 0.0 0.00 0.15 0.15 98 1010.3
20260903202729 65 311 1.0 1.0 0.00 0.15 0.15 98 1010.2
20260903202226 65 307 0.0 1.0 0.00 0.15 0.15 99 1010.2
20260903201725 65 310 0.0 0.0 0.00 0.15 0.15 99 1010.3
20260903201221 65 311 0.0 0.0 0.00 0.15 0.15 99 1010.1
20260903200719 65 311 0.0 0.0 0.00 0.15 0.15 99 1010.2
20260903200215 65 311 0.0 0.0 0.00 0.15 0.15 99 1010.1
20260903195710 64 307 0.0 0.0 0.00 0.15 0.15 99 1010.2
20260903195206 65 312 0.0 0.0 0.00 0.15 0.15 99 1010.2
20260903194706 65 310 0.0 1.0 0.00 0.15 0.15 99 1010.3
20260903194201 65 311 0.0 0.0 0.00 0.15 0.15 99 1010.4
20260903193657 65 307 0.0 1.0 0.00 0.15 0.15 99 1010.4
20260903193152 65 307 1.0 1.0 0.00 0.15 0.15 99 1010.6
20260903192649 65 304 1.0 1.0 0.00 0.15 0.15 99 1010.5
20260903192149 65 306 0.0 0.0 0.00 0.15 0.15 99 1010.7
20260903191645 65 306 1.0 1.0 0.00 0.15 0.15 99 1010.7
20260903191145 65 309 1.0 1.0 0.00 0.15 0.15 99 1010.7
20260903190644 65 301 2.0 2.0 0.00 0.15 0.15 99 1010.8
20260903190139 64 308 0.0 0.0 0.00 0.15 0.15 99 1011.0
20260903185635 64 308 1.0 1.0 0.00 0.15 0.15 99 1011.0
20260903185130 64 315 1.0 1.0 0.00 0.15 0.15 99 1011.0
20260903184626 64 311 0.0 1.0 0.00 0.15 0.15 99 1011.1
20260903184122 65 309 1.0 1.0 0.00 0.15 0.15 99 1011.0
20260903183620 65 308 1.0 1.0 0.00 0.15 0.15 99 1011.0
20260903183116 65 299 1.0 1.0 0.00 0.15 0.15 99 1011.4
20260903182615 65 305 1.0 1.0 0.00 0.15 0.15 99 1011.4
20260903182111 65 308 1.0 1.0 0.00 0.15 0.15 99 1011.2
20260903181608 65 308 0.0 0.0 0.00 0.15 0.15 99 1011.1
20260903181103 65 294 2.0 2.0 0.00 0.15 0.15 99 1011.3
20260903180559 65 308 1.0 1.0 0.00 0.15 0.15 99 1011.5
20260903180053 65 304 2.0 2.0 0.00 0.15 0.15 99 1011.4
20260903175552 65 312 2.0 2.0 0.00 0.15 0.15 99 1011.5
20260903175052 65 303 2.0 2.0 0.00 0.15 0.15 99 1011.3
20260903174547 65 306 1.0 1.0 0.00 0.15 0.15 99 1011.2
20260903174041 65 306 1.0 2.0 0.00 0.15 0.15 99 1011.3
20260903173536 65 308 0.0 0.0 0.00 0.15 0.15 99 1011.3
20260903173033 65 305 2.0 3.0 0.00 0.15 0.15 99 1011.0
20260903172527 64 306 1.0 1.0 0.00 0.15 0.15 99 1011.3
20260903172023 64 311 1.0 1.0 0.00 0.15 0.15 99 1011.8
20260903171517 64 309 1.0 1.0 0.00 0.15 0.15 99 1011.4
20260903171013 64 308 1.0 1.0 0.00 0.15 0.15 99 1011.6
20260903170511 64 308 1.0 1.0 0.00 0.15 0.15 99 1011.5
20260903170007 64 302 2.0 2.0 0.00 0.15 0.15 99 1011.3
20260903165459 64 288 3.0 5.0 0.00 0.15 0.15 99 1011.4
20260903164955 64 290 2.0 2.0 0.00 0.15 0.15 99 1011.5
20260903164449 64 311 1.0 2.0 0.00 0.15 0.15 99 1011.5
20260903163948 64 312 1.0 1.0 0.00 0.15 0.15 99 1011.4
20260903163439 64 281 2.0 3.0 0.00 0.15 0.15 99 1011.7
20260903162936 64 295 3.0 3.0 0.00 0.15 0.15 99 1011.8
20260903162432 64 298 2.0 2.0 0.00 0.15 0.15 99 1012.0
20260903161927 64 306 1.0 1.0 0.00 0.15 0.15 99 1011.8
20260903161422 63 308 0.0 1.0 0.00 0.15 0.15 99 1012.2
20260903160918 64 309 1.0 2.0 0.00 0.15 0.15 99 1012.1
20260903160417 64 309 2.0 2.0 0.00 0.15 0.15 99 1012.2
20260903155916 64 311 0.0 1.0 0.00 0.15 0.15 99 1012.2
20260903155411 64 305 1.0 1.0 0.00 0.15 0.15 99 1012.1
20260903154907 63 312 0.0 0.0 0.00 0.15 0.15 99 1012.3
20260903154403 63 311 0.0 0.0 0.00 0.15 0.15 99 1012.4
20260903153903 63 293 3.0 3.0 0.00 0.15 0.15 99 1012.5
20260903153358 63 296 2.0 2.0 0.00 0.15 0.15 99 1012.3
20260903152855 63 308 1.0 1.0 0.00 0.15 0.15 99 1012.5
20260903152350 64 309 1.0 2.0 0.00 0.15 0.15 99 1012.4
20260903151846 64 309 1.0 1.0 0.00 0.15 0.15 99 1012.8
20260903151341 63 299 3.0 3.0 0.00 0.15 0.15 99 1012.8
20260903150841 63 315 1.0 2.0 0.00 0.15 0.15 99 1012.9
20260903150335 63 310 1.0 1.0 0.00 0.15 0.15 99 1012.8
20260903145830 63 304 1.0 1.0 0.00 0.15 0.15 99 1013.0
20260903145326 63 309 1.0 1.0 0.05 0.15 0.15 99 1013.0
20260903144825 63 291 2.0 2.0 0.05 0.15 0.15 99 1013.0